Monroe Lake Weather Center

Moon Phase Calendar



Monroe Lake Water Level
Online Cameras

 


      

Current Conditions in Bloomington
8/11/2022 11:06:20 PM

69°F
Feels Like 70
Clear
Humidity
93%
Pressure
30.09"
Wind
7 mph (NNE)
Dew Point
67°F
UV Index
0/10 (Low)
Visibility
6 mi

Hourly Forecast

Date & Time Thu, Aug 11
11:00 PM
Fri, Aug 12
12:00 AM
Fri, Aug 12
1:00 AM
Fri, Aug 12
2:00 AM
Fri, Aug 12
3:00 AM
Fri, Aug 12
4:00 AM
Fri, Aug 12
5:00 AM
Fri, Aug 12
6:00 AM
Fri, Aug 12
7:00 AM
Fri, Aug 12
8:00 AM
Fri, Aug 12
9:00 AM
Fri, Aug 12
10:00 AM
Fri, Aug 12
11:00 AM
Fri, Aug 12
12:00 PM
Fri, Aug 12
1:00 PM
Fri, Aug 12
2:00 PM
Fri, Aug 12
3:00 PM
Fri, Aug 12
4:00 PM
Fri, Aug 12
5:00 PM
Fri, Aug 12
6:00 PM
Fri, Aug 12
7:00 PM
Fri, Aug 12
8:00 PM
Fri, Aug 12
9:00 PM
Fri, Aug 12
10:00 PM
Fri, Aug 12
11:00 PM
Sat, Aug 13
12:00 AM
Sat, Aug 13
1:00 AM
Sat, Aug 13
2:00 AM
Sat, Aug 13
3:00 AM
Sat, Aug 13
4:00 AM
Sat, Aug 13
5:00 AM
Sat, Aug 13
6:00 AM
Sat, Aug 13
7:00 AM
Sat, Aug 13
8:00 AM
Sat, Aug 13
9:00 AM
Sat, Aug 13
10:00 AM
Sat, Aug 13
11:00 AM
Sat, Aug 13
12:00 PM
Sat, Aug 13
1:00 PM
Sat, Aug 13
2:00 PM
Sat, Aug 13
3:00 PM
Sat, Aug 13
4:00 PM
Sat, Aug 13
5:00 PM
Sat, Aug 13
6:00 PM
Sat, Aug 13
7:00 PM
Sat, Aug 13
8:00 PM
Sat, Aug 13
9:00 PM
Sat, Aug 13
10:00 PM
Condition
Clear

Clear

Clear

Clear

Clear

Clouds

Clouds

Clouds

Clouds

Clouds

Clouds

Clouds

Clouds

Clouds

Clouds

Clouds

Clouds

Clouds

Clouds

Clouds

Clouds

Clouds

Clouds

Clouds

Clouds

Clouds

Clouds

Clouds

Clear

Clear

Clouds

Clouds

Clouds

Clouds

Clouds

Clouds

Clouds

Clouds

Clouds

Clouds

Clouds

Clouds

Clouds

Clouds

Clouds

Clouds

Clouds

Clouds
Temperature 69°F69°F67°F64°F61°F57°F56°F55°F54°F56°F61°F65°F71°F71°F76°F75°F76°F77°F76°F74°F72°F67°F64°F62°F60°F59°F57°F57°F56°F55°F54°F54°F53°F56°F62°F67°F71°F75°F78°F80°F81°F81°F81°F80°F77°F71°F67°F66°F
Feels Like 70°F69°F68°F65°F61°F57°F55°F54°F54°F56°F61°F65°F70°F70°F75°F75°F75°F76°F75°F73°F71°F66°F63°F62°F60°F58°F57°F56°F55°F54°F54°F53°F52°F55°F61°F66°F71°F74°F77°F80°F80°F80°F80°F80°F77°F71°F66°F66°F
Cloudiness 1%1%5%6%3%18%12%16%19%17%95%88%70%78%81%84%100%99%99%100%100%98%100%100%100%97%84%79%8%9%39%54%46%42%35%26%24%23%23%25%76%83%89%90%91%85%43%66%
Visibility 6 mi6 mi6 mi6 mi6 mi6 mi6 mi6 mi6 mi6 mi6 mi6 mi6 mi6 mi6 mi6 mi6 mi6 mi6 mi6 mi6 mi6 mi6 mi6 mi6 mi6 mi6 mi6 mi6 mi6 mi6 mi6 mi6 mi6 mi6 mi6 mi6 mi6 mi6 mi6 mi6 mi6 mi6 mi6 mi6 mi6 mi6 mi6 mi
Precipitation 0%0%0%0%0%0%0%0%0%0%0%0%0%0%0%0%0%0%0%0%0%0%0%0%0%0%0%0%0%0%0%0%0%0%0%0%0%0%0%0%0%0%0%0%0%0%0%0%
Humidity 93%94%94%94%93%93%93%94%95%93%86%74%56%51%42%41%40%37%38%47%55%69%73%76%81%84%85%85%87%89%90%90%91%84%69%58%52%46%41%37%35%34%36%40%53%68%70%68%
Dew Point 67°F67°F65°F63°F59°F54°F53°F52°F52°F54°F56°F56°F54°F52°F50°F50°F50°F49°F48°F51°F54°F56°F54°F54°F54°F53°F52°F52°F52°F51°F51°F50°F50°F51°F51°F52°F52°F52°F52°F51°F50°F50°F51°F53°F58°F60°F56°F55°F
Pressure 30.09"30.09"30.09"30.12"30.12"30.12"30.12"30.15"30.15"30.18"30.21"30.21"30.21"30.18"30.18"30.18"30.18"30.15"30.15"30.15"30.15"30.15"30.15"30.18"30.18"30.15"30.18"30.18"30.15"30.15"30.15"30.15"30.18"30.18"30.21"30.21"30.18"30.18"30.15"30.15"30.12"30.09"30.06"30.06"30.06"30.06"30.06"30.06"
Wind Speed 7 mph6.1 mph6 mph5.6 mph5.7 mph5.6 mph5.6 mph5.7 mph5.4 mph5.3 mph6.8 mph7 mph8.4 mph8 mph8.3 mph8.8 mph9.1 mph9.2 mph9.7 mph8.1 mph6.8 mph4.9 mph4.5 mph4.7 mph5.1 mph4.9 mph5 mph4.9 mph3.8 mph4.1 mph4 mph4.1 mph4.4 mph4.1 mph4.9 mph4.9 mph4.9 mph5.1 mph4.2 mph3.6 mph4.1 mph2.6 mph3.8 mph4.1 mph4.6 mph2.1 mph4 mph4 mph
Wind
Direction
29°
NNE
37°
NE
29°
NNE
26°
NNE
26°
NNE
32°
NNE
40°
NE
41°
NE
47°
NE
47°
NE
61°
ENE
70°
ENE
67°
ENE
68°
ENE
58°
ENE
44°
NE
43°
NE
40°
NE
47°
NE
52°
NE
57°
ENE
50°
NE
49°
NE
49°
NE
48°
NE
56°
NE
49°
NE
58°
ENE
69°
ENE
64°
ENE
56°
NE
65°
ENE
61°
ENE
76°
ENE
58°
ENE
66°
ENE
92°
E
109°
ESE
120°
ESE
137°
SE
155°
SSE
153°
SSE
150°
SSE
138°
SE
139°
SE
117°
ESE
117°
ESE
145°
SE

Daily Forecast

Date High Low Precip. Humidity
Today
Aug 11

Rain
87 °F
61 °F
79%
46%
Friday
Aug 12

Clouds
77 °F
54 °F
0%
42%
Saturday
Aug 13

Clouds
81 °F
53 °F
0%
41%
Sunday
Aug 14

Rain
84 °F
62 °F
84%
46%
Monday
Aug 15

Rain
76 °F
67 °F
40%
78%
Tuesday
Aug 16

Clear
83 °F
62 °F
0%
44%
Wednesday
Aug 17

Clouds
81 °F
60 °F
0%
47%
Thursday
Aug 18

Clouds
84 °F
59 °F
0%
39%
Friday
Aug 19

Clouds
86 °F
61 °F
0%
37%
Saturday
Aug 20

Clear
90 °F
65 °F
0%
33%
Sunday
Aug 21

Clear
91 °F
66 °F
0%
41%
Monday
Aug 22

Rain
85 °F
65 °F
91%
60%
Tuesday
Aug 23

Clouds
75 °F
52 °F
25%
37%
Wednesday
Aug 24

Clear
77 °F
50 °F
0%
31%
Thursday
Aug 25

Clear
80 °F
53 °F
0%
30%
Friday
Aug 26

Clear
87 °F
56 °F
0%
38%

Temperature 8-14 Day Outlook



Precipitation 8-14 Day Outlook




Quick Links
Monroe Lake News
Monroe Lake Photos
Monroe Lake Videos




About Us
Contact Us
Site Map
Search Site
Advertise With Us
   
Monroe.USLakes.info
THE MONROE LAKE WEBSITE

Copyright 2022, Lakes Online
Privacy    |    Legal